Regional Weather Roundup
Issued by NWS Newport/Morehead, NC

Current Version | Previous Version | Text Only | Print | Product List | Glossary Off
Versions: 1 2 3 4 5 6 7 8 9 10 11 12 13 14 15 16 17 18 19 20 21 22 23 24 25 26 27 28 29 30 31 32 33 34 35 36 37 38 39 40 41 42 43 44 45 46 47 48 49 50
584 ASUS42 KMHX 172226 RWRMHX WEATHER ROUNDUP FOR EASTERN NORTH CAROLINA NATIONAL WEATHER SERVICE NEWPORT/MOREHEAD CITY NC 600 PM EDT THU AUG 17 2017 NOTE: "FAIR" INDICATES FEW OR NO CLOUDS BELOW 12,000 FEET WITH NO SIGNIFICANT WEATHER AND/OR OBSTRUCTIONS TO VISIBILITY NCZ015>017-031-032-045>047-102-103-172300- NORTH COAST CITY SKY/WX TMP DP RH WIND PRES REMARKS EDENTON MOSUNNY 86 77 73 CALM 29.99S ELIZABETH CITY CLOUDY 83 74 74 SE12 29.99R KITTY HAWK CLEAR 80 72 76 CALM 29.99F MANTEO SUNNY 82 73 74 S7 30.00F $$ NCZ045>047-081-094-103-104-172300- CENTRAL COAST CITY SKY/WX TMP DP RH WIND PRES REMARKS FRISCO SUNNY 85 76 74 S7 30.00S $$ NCZ095-097-098-100-101-172300- SOUTHERN COAST CITY SKY/WX TMP DP RH WIND PRES REMARKS BEAUFORT SUNNY 84 78 82 S8 29.99S CEDAR ISLAND NOT AVBL JACKSONVILLE CLOUDY 84 80 88 S6 29.99R PINEY ISLAND CLEAR N/A N/A N/A S7 29.99S WILMINGTON CLOUDY 81 77 88 CALM 29.99S $$ NCZ011>013-027>030-043-044-078>080-089-090>093-098-172300- COASTAL PLAIN CITY SKY/WX TMP DP RH WIND PRES REMARKS AHOSKIE LGT RAIN 76 76 99 CALM 29.98S CLINTON CLOUDY 74 74 100 CALM 30.00S ELIZABETHTOWN NOT AVBL GOLDSBORO LGT RAIN 78 78 100 CALM 29.96F GREENVILLE MOSUNNY 81 75 83 SW8 30.00R HAVELOCK MOSUNNY 85 76 74 S6 30.00S KENANSVILLE CLOUDY 79 75 89 SW3 29.99S KINSTON CLOUDY 81 77 89 S6 29.99S NEW BERN MOSUNNY 85 76 74 S8 30.00R RICHLANDS CLOUDY 83 80 91 S6 30.00S ROCKY MOUNT CLOUDY 81 76 84 W10 29.99R WASHINGTON PTSUNNY 86 76 71 SW7 29.97F WHITEVILLE HVY RAIN 77 75 92 S13 30.03R VSB 1 $$ AMZ130-135-150-152-154-156-158-170-250-252-270-ANZ085-086-088-633-658-670-172300- MARINE OBSERVATIONS STATION/POSITION TIME TEMP WIND PRES WAVE SWELL AIR SEA DIR/SP/G HT/PER HT/PER (UTC) (F) (DEG/KT/KT) (MB) (FT/S) (FT/S) CHESAPEAKE LIGHT NOT AVBL 64 E VA BEACH 2150 78 80 150/ 6/ 8 1016.5 2/ 7 2/ 7 DUCK 2200 80 76 130/ 12/ 13 1015.3 2 E DUCK 2200 80 N/A 2/ 6 OREGON INLET 2200 81 87 100/ 6/ 7 1015.9 13E OREGON INLT 2148 81 N/A 2/ 7 2/ 7 HATTERAS CG 2200 82 85 170/ 7/ 8 1015.9 DIAMOND BUOY 2150 83 87 160/ 6/ 8 1015.6 2/ 8 2/ 8 CAPE LOOKOUT 2200 83 160/ 7/ 9 1015.1 BEAUFORT LAB 2200 84 81 190/ 8/ 10 1014.9 30 SE NEW RVR IN 2208 82 84 180/ 8/ 10 1015.6 30 SE NEW RVR IN 2143 84 N/A 2/ 7 27 SE WRIGHTSVLE 2208 83 84 180/ 8/ 12 1015.3 5 SE WRIGHTSVLE 2208 82 84 230/ 10/ 14 1015.0 225 S CAPE HAT 2150 85 85 310/ 4/ 6 1016.1 2/ 5 2/ 5 41 SE CHARLESTON 2150 85 86 200/ 8/ 10 1014.4 2/ 4 2/ 4 $$

USA.gov is the U.S. government's official web portal to all federal, state and local government web resources and services.